Watertown, WI

9:02 PM CDT on June 25, 2017 (GMT -0500)
Watertown Municipal

Weather History for KRYV - January, 2013

Change the Weather History Date:

Sunday, January 27, 2013

  Actual Average Record
Temperature  
Mean Temperature 27 °F -  
Max Temperature 32 °F 23 °F 55 °F (1944)
Min Temperature 22 °F 6 °F -18 °F (1988)
Degree Days  
Heating Degree Days 38    
Moisture  
Dew Point 22 °F    
Average Humidity 80    
Maximum Humidity 100    
Minimum Humidity 63    
Precipitation  
Precipitation 0.04 in - - ()
Sea Level Pressure  
Sea Level Pressure 30.13 in    
Wind  
Wind Speed 7 mph (SE)    
Max Wind Speed 14 mph    
Max Gust Speed 18 mph    
Visibility 7 miles    
Events Snow , Thunderstorm    
Averages and records for this station are not official NWS values.
T = Trace of Precipitation, MM = Missing Value Source: NWS Daily Summary

Daily Weather History Graph

Daily Weather History Graph

Search for Another Location

Airport or City:

Trip Planner

Search our weather history database for the weather conditions in past years. The results will help you decide how hot, cold, wet, or windy it might be!

Date:

Astronomy

Jan. 27, 2013 Rise Set
Actual Time 7:15 AM CST 5:00 PM CST
Civil Twilight 6:44 AM CST 5:31 PM CST
Nautical Twilight 6:10 AM CST 6:05 PM CST
Astronomical Twilight 5:36 AM CST 6:39 PM CST
Moon 5:57 PM CST (1/27) 7:05 AM CST (1/27)
Length of Visible Light 10h 47m
Length of Day
9h 45m
Full, 100% of the Moon is Illuminated
Jan 27
Full
Feb 3
Last Quarter
Feb 10
New
Feb 17
First Quarter
Feb 25
Full

Hourly Weather History & Observations

Time (CST) Temp. Windchill Dew Point Humidity Pressure Visibility Wind Dir Wind Speed Gust Speed Precip Events Conditions
12:15 AM 22.6 °F 16.5 °F 12.0 °F 64% 30.31 in 10.0 mi SE 4.6 mph - N/A   Mostly Cloudy
12:35 AM 22.5 °F 14.1 °F 12.2 °F 65% 30.30 in 10.0 mi SSE 6.9 mph - N/A   Mostly Cloudy
12:55 AM 22.5 °F 15.1 °F 12.2 °F 65% 30.31 in 10.0 mi SSE 5.8 mph - N/A   Overcast
1:15 AM 22.5 °F 14.1 °F 12.4 °F 65% 30.30 in 10.0 mi SSE 6.9 mph - N/A   Scattered Clouds
1:35 AM 22.6 °F 15.3 °F 12.4 °F 65% 30.31 in 10.0 mi SSE 5.8 mph - N/A   Scattered Clouds
1:55 AM 23.0 °F 15.8 °F 12.4 °F 64% 30.31 in 10.0 mi SSE 5.8 mph - N/A   Mostly Cloudy
2:15 AM 23.2 °F 15.0 °F 12.4 °F 63% 30.30 in 10.0 mi SSE 6.9 mph - N/A   Overcast
2:35 AM 23.4 °F 15.2 °F 12.6 °F 63% 30.29 in 10.0 mi SSE 6.9 mph - N/A   Overcast
2:55 AM 23.5 °F 16.4 °F 13.3 °F 65% 30.30 in 10.0 mi SSE 5.8 mph - N/A   Overcast
3:15 AM 23.7 °F 14.7 °F 13.6 °F 65% 30.29 in 10.0 mi SSE 8.1 mph - N/A   Overcast
3:35 AM 23.7 °F 17.8 °F 14.0 °F 66% 30.28 in 10.0 mi SE 4.6 mph - N/A   Overcast
3:55 AM 23.7 °F 14.7 °F 14.5 °F 68% 30.27 in 10.0 mi SSE 8.1 mph - N/A   Scattered Clouds
4:15 AM 23.5 °F 15.4 °F 14.9 °F 70% 30.27 in 10.0 mi SSE 6.9 mph - N/A   Clear
4:35 AM 23.4 °F 16.2 °F 14.9 °F 70% 30.26 in 10.0 mi SE 5.8 mph - N/A   Clear
4:55 AM 23.0 °F 17.0 °F 15.4 °F 73% 30.26 in 10.0 mi SE 4.6 mph - N/A   Scattered Clouds
5:15 AM 23.0 °F 17.0 °F 15.8 °F 74% 30.26 in 10.0 mi SSE 4.6 mph - N/A   Mostly Cloudy
5:35 AM 23.0 °F 13.9 °F 16.5 °F 76% 30.25 in 10.0 mi SE 8.1 mph - N/A   Overcast
5:55 AM 23.5 °F 15.4 °F 16.7 °F 75% 30.24 in 10.0 mi SE 6.9 mph - N/A   Overcast
6:15 AM 23.5 °F 15.4 °F 16.9 °F 76% 30.25 in 10.0 mi SE 6.9 mph - N/A   Overcast
6:35 AM 23.5 °F 14.5 °F 17.2 °F 77% 30.24 in 10.0 mi SE 8.1 mph - N/A   Overcast
6:55 AM 23.5 °F 14.5 °F 17.6 °F 78% 30.25 in 10.0 mi SSE 8.1 mph - N/A   Overcast
7:15 AM 23.7 °F 16.6 °F 17.6 °F 77% 30.25 in 10.0 mi SE 5.8 mph - N/A   Overcast
7:35 AM 23.9 °F 15.8 °F 17.8 °F 77% 30.25 in 10.0 mi SE 6.9 mph - N/A   Overcast
7:55 AM 24.3 °F 17.3 °F 18.3 °F 78% 30.25 in 10.0 mi SE 5.8 mph - N/A   Overcast
8:15 AM 24.6 °F 16.7 °F 18.3 °F 77% 30.25 in 10.0 mi SE 6.9 mph - N/A   Overcast
8:35 AM 25.0 °F 15.5 °F 18.7 °F 77% 30.26 in 10.0 mi SSE 9.2 mph - N/A   Mostly Cloudy
8:55 AM 25.5 °F 16.2 °F 18.5 °F 75% 30.26 in 10.0 mi SSE 9.2 mph - N/A   Mostly Cloudy
9:15 AM 26.2 °F 18.6 °F 18.9 °F 74% 30.25 in 10.0 mi SSE 6.9 mph - N/A   Overcast
9:35 AM 27.3 °F 17.7 °F 19.2 °F 72% 30.25 in 10.0 mi SSE 10.4 mph - N/A   Overcast
9:55 AM 27.9 °F 18.4 °F 19.2 °F 70% 30.24 in 10.0 mi SSE 10.4 mph - N/A   Overcast
10:15 AM 28.0 °F 18.6 °F 19.8 °F 71% 30.23 in 10.0 mi SSE 10.4 mph - N/A   Overcast
10:35 AM 28.2 °F 19.5 °F 21.2 °F 75% 30.22 in 10.0 mi SSE 9.2 mph - N/A   Overcast
10:55 AM 29.1 °F 20.0 °F 20.5 °F 70% 30.21 in 10.0 mi SSE 10.4 mph - N/A   Overcast
11:15 AM 29.7 °F 20.1 °F 20.8 °F 70% 30.20 in 10.0 mi SSE 11.5 mph 16.1 mph N/A   Overcast
11:35 AM 29.8 °F 21.5 °F 21.0 °F 70% 30.18 in 10.0 mi SSE 9.2 mph - N/A   Overcast
11:55 AM 30.2 °F 21.3 °F 21.2 °F 69% 30.17 in 10.0 mi SSE 10.4 mph - N/A   Overcast
12:15 PM 30.7 °F 20.4 °F 21.6 °F 69% 30.15 in 10.0 mi SSE 13.8 mph 18.4 mph N/A   Overcast
12:35 PM 30.7 °F 22.0 °F 22.1 °F 70% 30.13 in 10.0 mi SE 10.4 mph - N/A Snow Light Snow
12:55 PM 30.7 °F 22.6 °F 21.7 °F 69% 30.13 in 10.0 mi SE 9.2 mph - N/A   Overcast
1:15 PM 30.4 °F 21.5 °F 22.1 °F 71% 30.13 in 7.0 mi SSE 10.4 mph - N/A   Overcast
1:35 PM 29.5 °F 22.5 °F 23.4 °F 78% 30.12 in 2.0 mi SE 6.9 mph - N/A Snow Light Snow
2:15 PM 27.5 °F 18.6 °F 26.2 °F 95% 30.10 in 0.5 mi SE 9.2 mph - 0.01 in Snow Snow
2:35 PM 28.0 °F 18.6 °F 26.2 °F 93% 30.07 in 1.5 mi ESE 10.4 mph - 0.03 in Snow Light Snow
2:55 PM 28.2 °F 19.5 °F 26.2 °F 92% 30.07 in 4.0 mi SE 9.2 mph - 0.03 in   Overcast
3:15 PM 29.1 °F 20.0 °F 26.2 °F 89% 30.06 in 7.0 mi ESE 10.4 mph - N/A   Overcast
3:35 PM 29.3 °F 20.8 °F 26.2 °F 88% 30.05 in 7.0 mi ESE 9.2 mph - N/A   Overcast
3:55 PM 29.3 °F 20.2 °F 26.2 °F 88% 30.04 in 7.0 mi SE 10.4 mph 17.3 mph N/A   Overcast
4:15 PM 29.3 °F 18.6 °F 26.1 °F 88% 30.00 in 7.0 mi ESE 13.8 mph - N/A   Overcast
4:35 PM 29.3 °F 18.6 °F 25.7 °F 86% 29.99 in 7.0 mi ESE 13.8 mph - N/A   Overcast
5:35 PM 29.7 °F 21.3 °F 27.7 °F 92% 29.96 in 2.5 mi SE 9.2 mph - N/A   Overcast
5:55 PM 29.7 °F 20.7 °F 28.0 °F 94% 29.95 in 2.0 mi SE 10.4 mph - N/A Thunderstorm Overcast
6:15 PM 29.8 °F 20.9 °F 28.0 °F 93% 29.95 in 2.5 mi SE 10.4 mph - N/A Thunderstorm Overcast
6:35 PM 29.8 °F 21.5 °F 28.2 °F 94% 29.94 in 3.0 mi SE 9.2 mph - N/A   Overcast
6:55 PM 30.0 °F 23.2 °F 28.8 °F 95% 29.94 in 2.5 mi SE 6.9 mph - N/A   Overcast
7:15 PM 30.2 °F 22.6 °F 29.1 °F 96% 29.94 in 2.5 mi SE 8.1 mph - N/A   Overcast
7:35 PM 30.2 °F 23.4 °F 29.3 °F 96% 29.93 in 2.5 mi SE 6.9 mph - N/A   Overcast
7:55 PM 30.2 °F 22.6 °F 29.3 °F 96% 29.93 in 2.5 mi SE 8.1 mph - N/A   Overcast
8:15 PM 30.6 °F 23.1 °F 29.7 °F 96% 29.91 in 2.0 mi SE 8.1 mph - N/A   Overcast
8:35 PM 30.7 °F 22.6 °F 30.0 °F 97% 29.90 in 2.0 mi ESE 9.2 mph - N/A   Overcast
8:55 PM 30.9 °F 23.5 °F 30.0 °F 96% 29.90 in 2.0 mi SE 8.1 mph - N/A   Overcast
9:15 PM 30.9 °F 24.3 °F 30.2 °F 97% 29.89 in 2.0 mi SE 6.9 mph - N/A   Overcast
10:15 PM 31.6 °F 26.0 °F 31.1 °F 98% 29.87 in 2.5 mi ESE 5.8 mph - N/A   Overcast
10:35 PM 31.8 °F 26.2 °F 31.5 °F 99% 29.86 in 2.0 mi SE 5.8 mph - N/A   Overcast
10:55 PM 32.0 °F 28.7 °F 31.8 °F 99% 29.86 in 2.5 mi SE 3.5 mph - N/A   Overcast
11:15 PM 32.0 °F 27.5 °F 31.8 °F 99% 29.86 in 2.5 mi SE 4.6 mph - N/A   Overcast
11:35 PM 32.0 °F 27.5 °F 32.0 °F 100% 29.85 in 2.0 mi SE 4.6 mph - N/A   Overcast
11:55 PM 32.0 °F 28.7 °F 32.0 °F 100% 29.84 in 1.8 mi SE 3.5 mph - 0.01 in   Overcast